吉林一号 高分 2F (JILIN-1 GAOFEN 2F)

导读 | 豆包AI

JILIN-01 GAOFEN 2F(吉林一号高分2F)是中国发射的商业光学遥感卫星,于2021年10月27日成功发射入轨,属于“吉林一号”卫星星座组成部分。作为高分辨率对地观测卫星,它具备多元成像能力,能够为国土资源监测、城市建设、农业林业资源普查、防灾减灾等领域提供精准遥感数据服务,推动中国商业航天遥感应用产业化发展,服务国民经济多领域应用需求。

Basic Information
目录编号:
49338
目录名称:
JILIN-01 GAOFEN 2F
国际标识:
2021-097A
轨道中心:
EARTH
卫星名称:
高分 2F
卫星全名:
吉林一号 高分 2F (JILIN-1 GAOFEN 2F)
卫星状态:
在轨 (已飞行1644 天)
发射日期:
2021-10-27 UTC
国别 :
中国 (CN)
星等 :
--
Orbit Information
数据来源 国际轨道数据 AOE轨道数据
星历时间 2026-04-28T20:29:47+0800
8小时前
查看轨道信息
2026-04-23T01:00:00+0800
6天前
查看轨道信息
半长轴 6922.269km 6922.327km
偏心率 0.0019534 0.0019933
轨道倾角 97.662° 97.662°
近地点辐角 40.399° 60.060°
升交点赤经 244.880° 239.091°
平近点角 319.868° 98.868°
近地点 530.61km 530.391km
远地点 557.654km 557.989km
周期 95.528分钟 95.530分钟
每日圈数 15.074055 15.073866
Detailed Information
卫星平台:
CS-L3000A
平衡模式:
三轴稳定
覆盖范围:
全球
运营商:
长光卫星技术股份有限公司
运营商所在国:
中国
制造商(研发单位):
长光卫星技术股份有限公司
制造商所在国:
中国
使用方式:
暂无
Satellite Introduction
“吉林一号”卫星星座(JiLin-1)是长光卫星技术有限公司在建的核心工程,是我国目前最大的商业遥感卫星星座,具备了较强的服务能力。该卫星仍在工作。
2D Orbit Map
3D Orbit Map
Orbit Altitude Analysis Chart
Orbit Inclination Analysis Chart
Orbit Comprehensive Analysis Chart
View Comprehensive Chart